Location: Wanzleben
(52.0609°N, 11.4408°E)
Time: 16:27:42
(UTC+00:00)

Envisat - Pass Details

Date: 27 November 2020
Orbit: 764 x 766 km, 98.1° (Epoch: 20 January)

Event Time Altitude Azimuth Distance (km) Brightness Sun altitude
Rises 04:25:10 0° 21° (NNE) 3,248 6.4 -22.1°
Reaches altitude 10° 04:27:46 10° 32° (NNE) 2,316 5.8 -21.7°
Maximum altitude 04:32:16 31° 94° (E) 1,336 4.9 -21.1°
Drops below altitude 10° 04:36:43 10° 156° (SSE) 2,300 5.9 -20.4°
Sets 04:39:16 0° 166° (SSE) 3,221 6.5 -20.0°
